Regional Weather Roundup
Issued by NWS Huntsville, AL

Home | Current Version | Previous Version | Text Only | Print | Product List | Glossary On
Versions: 1 2 3 4 5 6 7 8 9 10 11 12 13 14 15 16 17 18 19 20 21 22 23 24 25 26 27
000
ASUS44 KHUN 250110
RWRHUN

WEATHER ROUNDUP FOR THE TENNESSEE VALLEY
NATIONAL WEATHER SERVICE HUNTSVILLE AL
800 PM CDT WED AUG 24 2016

ALZ001>004-250200-
NORTHWEST ALABAMA

CITY           SKY/WX    TMP DP  RH WIND       PRES   REMARKS
SHOALS AIRPORT CLEAR     82  74  76 SE3       30.13R
SHOALS TVA RES   N/A     82 N/A N/A MISG        N/A
$$

ALZ005>007-016-250200-
NORTH CENTRAL ALABAMA

CITY           SKY/WX    TMP DP  RH WIND       PRES   REMARKS
DECATUR AP     CLEAR     81  76  84 CALM      30.13S
HUNTSVILLE AP  PTCLDY    87  70  56 CALM      30.13S HX  92
MERIDIANVILLE  CLEAR     81  68  65 CALM      30.14S
REDSTONE ARSN  CLEAR     85  72  64 SE2       30.13R HX  91
VINEMONT AP    FAIR      81  73  77 CALM      30.18S
$$

ALZ008>010-250200-
NORTHEAST ALABAMA

CITY           SKY/WX    TMP DP  RH WIND       PRES   REMARKS
ALBERTVILLE    PTCLDY    82  77  83 CALM      30.16S HX  91
FORT PAYNE     CLEAR     81  68  65 CALM      30.17R
SCOTTSBORO AP  CLEAR     82  75  78 CALM      30.15S
SCOTTSBORO HCN   N/A     81 N/A N/A MISG        N/A
VALLEY HEAD      N/A     81 N/A N/A MISG        N/A
$$

TNZ076-096-097-250200-
SOUTHEASTERN MIDDLE TENNESSEE

CITY           SKY/WX    TMP DP  RH WIND       PRES   REMARKS
TULLAHOMA      CLEAR     79  73  83 CALM      30.19R
WINCHESTER     CLEAR     79  73  83 CALM      30.17R
$$

...SURROUNDING SITES...

CITY           SKY/WX    TMP DP  RH WIND       PRES   REMARKS
ATLANTA        MOCLDY    78  74  87 E6        30.20S
ANNISTON       MOCLDY    83  71  67 NE5       30.17R
BIRMINGHAM     PTCLDY    85  74  69 CALM      30.16S HX  92
CHATTANOOGA    MOCLDY    84  69  60 S8        30.17R
DALTON         CLEAR     79  72  78 CALM      30.19R
GADSDEN        CLEAR     81  75  82 SE7       30.15R
GOLDEN TRNGL   CLEAR     90  72  55 CALM      30.11R HX  96
HALEYVILLE     FAIR      79  76  90 CALM      30.17S
JACKSON TN     CLEAR     82  77  84 S3        30.10R HX  90
MEMPHIS        PTCLDY    87  73  62 SW5       30.09S HX  94
NASHVILLE      MOCLDY    85  72  65 CALM      30.13R HX  91
OXFORD MS      FAIR      82  73  74 CALM      30.13S
ROME           CLEAR     80  71  74 VRB3      30.17R
SAVANNAH       CLEAR     81  79  94 CALM      30.10S
TUPELO         PTCLDY    87  71  58 CALM      30.11R HX  93
TUSCALOOSA     CLEAR     85  76  74 CALM      30.11R HX  94
$$

...GULF COAST WEATHER...

CITY           SKY/WX    TMP DP  RH WIND       PRES   REMARKS
GULFPORT       PTCLDY    78  76  93 NE5       30.08S
PASCAGOULA     CLOUDY    79  79 100 N3        30.10R
MOBILE         MOCLDY    81  77  88 NE3       30.12S
GULF SHORES    CLOUDY    82  79  91 CALM      30.11R HX  92
PENSACOLA      MOCLDY    82  79  90 SE6       30.11R HX  92
DESTIN         CLOUDY    85  78  80 CALM      30.11R HX  96
PANAMA CITY    PTCLDY    79  77  95 CALM      30.11R
APPALACHICOLA  MOCLDY    82  78  88 N3        30.10R HX  91
$$





USA.gov is the U.S. government's official web portal to all federal, state and local government web resources and services.